COSMOS 1275 DEB, 12693

Orbit data source: Space-Track

COSMOS 1275 DEB, 12693 is space debris in LEO originally from a launch on Thu, 04 Jun 1981 UTC launched from the Plesetsk Missile And Space Complex (PKMTR). Debris objects in space refer to the collection of defunct objects orbiting the Earth. Examples of debris include non-operational satellites, rocket bodies, and fragments generated from explosions, collisions, or faulty payload assembly.

Loading next visibility...
Identifier
12693, 1981-053AM
Orbit
LEO
Country
Flag of CISCIS
Related business
Manufacturer
Unknown
Mission
Spacecraft
Bus & Motor
Unknown
Mass
Unknown
Launch date (UTC)
1981-06-04 (45 years ago)
Launch vehicle
Unknown
Launch site
Plesetsk Missile And Space Complex (PKMTR)
Object type
Payload
Rocket body
Debris
Shape & HBR
Unknown shape, 0.2 m
Radar Cross Section
Medium (>0.1 m² and <1 m²)

Expand to show TLE details & history
Last TLE update: 5 hours ago

TLE from 5 hours ago
0 COSMOS 1275 DEB
1 12693U 81053AM  26105.90781235  .00000350  00000-0  15170-3 0  9992
2 12693  83.1453 344.9778 0044478 238.5158 132.2995 14.21092396979225
Epoch: 2026-04-15T21:47Z
TLE epoch observation values (Epoch: 2026-04-15T21:47:14.987Z)
Latitude
11.06079°
Longitude
175.4418°
Altitude
845.507 km
Speed
7.42 km/s
True Right ascension
23h 05m 16s
True Declination
10° 59' 49"
Sunlit
Object was in daylight at epoch
Visualization orbit readout
Latitude
Unknown
Longitude
Unknown
Altitude
Unknown
Speed
Unknown
Apparent Right ascension
Unknown
Apparent Declination
Unknown
Sunlit
N/A
Visualization observer readout
Local Sidereal Time
09:30:52
Azimuth
Unknown
Elevation
Unknown
Doppler factor
Unknown
Orbital elements
Apogee altitude
850.748 km
Perigee altitude
786.728 km
Semi-major axis
7,196.875 km
Eccentricity
0.00445
Inclination
83.1453°
RAAN
344.9778°
Arg. of periapsis
238.5158°
True anomaly
132.67507°
Mean anomaly
132.2995°
Eccentric anomaly
132.48743°
Mean motion
3.5549 °/min
Orbital period
101.27 mins
BSTAR
0.0001517
Loading maneuver chart data...
Computing Atmospheric mass density...
Loading historical data...
Loading historical data...
Loading historical data...
Loading historical data...
Loading historical data...
Loading historical data...
Loading historical data...

Documentation

Showing up to 5 results
|